Date,TemperatureHighF,TemperatureAvgF,TemperatureLowF,DewpointHighF,DewpointAvgF,DewpointLowF,HumidityHigh,HumidityAvg,HumidityLow,PressureMaxIn,PressureMinIn,WindSpeedMaxMPH,WindSpeedAvgMPH,GustSpeedMaxMPH,PrecipitationSumIn
2014-1-1,31.0,27.2,21.0,31.0,27.2,20.0,100,100,95,0.00,40.00,4,2,6,0.01
2014-1-2,32.0,30.8,28.0,32.0,30.8,28.0,100,100,100,0.00,40.00,4,2,6,0.01
2014-1-3,52.0,40.4,28.0,33.0,25.8,20.0,100,60,28,0.00,40.00,19,12,28,0.01
2014-1-4,45.0,28.8,15.0,25.0,18.4,-99.9,91,69,40,0.00,40.00,7,4,10,0.00
2014-1-5,42.0,24.7,12.0,26.0,16.7,9.0,93,74,39,0.00,40.00,8,3,12,0.00
2014-1-6,39.0,27.1,17.0,21.0,17.1,12.0,85,67,40,0.00,40.00,10,3,12,0.00
2014-1-7,35.0,30.6,24.0,31.0,27.4,18.0,100,88,77,0.00,40.00,6,2,9,0.06
2014-1-8,33.0,30.5,28.0,32.0,30.3,28.0,100,99,94,0.00,40.00,5,1,7,0.03
2014-1-9,44.0,32.4,23.0,35.0,30.5,23.0,100,93,71,0.00,40.00,8,4,17,0.02
2014-1-10,53.0,44.9,30.0,37.0,33.9,30.0,100,67,48,0.00,40.00,17,6,26,0.01
2014-1-11,56.0,50.5,44.0,40.0,34.0,-99.9,68,54,38,0.00,40.00,38,19,57,0.00
2014-1-12,56.0,48.1,43.0,37.0,30.5,22.0,70,51,36,0.00,40.00,22,10,36,0.00
2014-1-13,59.0,52.1,42.0,36.0,34.3,33.0,75,52,39,0.00,40.00,16,10,26,0.00
2014-1-14,55.0,43.6,30.0,37.0,34.5,28.0,97,72,51,0.00,40.00,16,6,22,0.00
2014-1-15,55.0,37.1,27.0,36.0,31.4,26.0,100,83,43,0.00,40.00,8,3,17,0.00
2014-1-16,48.0,30.6,23.0,39.0,28.3,23.0,100,92,58,0.00,40.00,5,2,7,0.00
2014-1-17,42.0,27.9,19.0,35.0,26.4,18.0,100,95,70,0.00,40.00,7,2,9,0.00
2014-1-18,32.0,30.4,27.0,32.0,29.6,-99.9,100,99,100,0.00,40.00,5,2,7,0.01
2014-1-19,33.0,31.8,31.0,32.0,30.5,29.0,100,95,87,0.00,40.00,4,1,7,0.01
2014-1-20,34.0,32.3,31.0,31.0,29.5,28.0,95,89,84,0.00,40.00,6,3,8,0.00
2014-1-21,33.0,31.5,30.0,29.0,27.8,26.0,93,86,79,0.00,40.00,6,3,8,0.00
2014-1-22,34.0,31.6,30.0,29.0,27.8,26.0,95,86,75,0.00,40.00,5,2,8,0.00
2014-1-23,35.0,32.8,31.0,30.0,28.7,27.0,90,85,79,0.00,40.00,6,3,8,0.00
2014-1-24,33.0,31.8,31.0,31.0,29.0,28.0,99,90,84,0.00,40.00,4,2,7,0.00
2014-1-25,32.0,30.5,30.0,30.0,26.4,-99.9,97,88,79,0.00,40.00,4,2,7,0.00
2014-1-26,32.0,30.3,28.0,27.0,25.8,25.0,94,83,75,0.00,40.00,6,2,8,0.00
2014-1-27,35.0,32.2,31.0,29.0,27.8,26.0,93,83,73,0.00,40.00,5,3,8,0.00
2014-1-28,37.0,32.8,30.0,32.0,28.9,28.0,100,86,73,0.00,40.00,5,2,10,0.06
2014-1-29,38.0,33.7,29.0,35.0,32.5,28.0,100,96,88,0.00,40.00,9,5,14,0.30
2014-1-30,49.0,35.5,27.0,35.0,31.3,27.0,100,87,57,0.00,40.00,9,4,14,0.03
2014-1-31,44.0,33.0,24.0,33.0,29.2,23.0,100,87,54,0.00,40.00,6,2,11,0.00
2014-2-1,35.0,28.8,22.0,25.0,19.7,-99.9,95,72,42,0.00,40.00,7,4,9,0.00
2014-2-2,35.0,30.9,27.0,24.0,20.5,19.0,79,66,53,0.00,40.00,8,5,15,0.00
2014-2-3,36.0,30.4,26.0,24.0,18.9,12.0,80,64,39,0.00,40.00,11,6,16,0.00
2014-2-4,27.0,23.4,17.0,19.0,5.2,-2.0,75,46,36,0.00,40.00,13,10,20,0.00
2014-2-5,19.0,15.0,11.0,-2.0,-8.0,-12.0,44,35,29,0.00,40.00,15,10,23,0.00
2014-2-6,20.0,14.6,9.0,11.0,-3.4,-9.0,84,46,31,0.00,40.00,11,8,17,0.00
2014-2-7,26.0,18.1,6.0,13.0,9.7,1.0,85,70,52,0.00,40.00,13,5,21,0.01
2014-2-8,27.0,23.6,20.0,22.0,14.1,11.0,95,68,50,0.00,40.00,17,7,24,0.01
2014-2-9,36.0,26.0,22.0,25.0,21.8,20.0,93,84,63,0.00,40.00,17,4,24,0.08
2014-2-10,31.0,25.5,17.0,25.0,22.3,16.0,97,88,73,0.00,40.00,4,2,7,0.08
2014-2-11,42.0,30.1,16.0,34.0,26.8,15.0,100,89,67,0.00,40.00,7,3,12,0.07
2014-2-12,60.0,47.9,31.0,41.0,36.5,29.0,100,68,40,0.00,40.00,23,11,41,0.10
2014-2-13,58.0,47.7,31.0,42.0,31.8,27.0,94,57,31,0.00,40.00,26,13,37,0.00
2014-2-14,58.0,45.1,36.0,42.0,36.3,32.0,100,74,43,0.00,40.00,24,8,36,0.12
2014-2-15,40.0,36.7,30.0,38.0,33.9,-99.9,100,93,78,0.00,40.00,10,6,14,0.16
2014-2-16,53.0,44.6,37.0,35.0,29.4,22.0,88,57,31,0.00,40.00,26,11,38,0.02
2014-2-17,56.0,47.7,28.0,39.0,32.8,25.0,94,58,35,0.00,40.00,26,12,48,0.00
2014-2-18,56.0,41.8,27.0,41.0,32.0,23.0,97,71,46,0.00,40.00,24,9,37,0.00
2014-2-19,52.0,41.0,28.0,29.0,24.0,18.0,91,53,28,0.00,40.00,22,11,32,0.00
2014-2-20,56.0,41.2,26.0,35.0,29.1,24.0,94,66,33,0.00,40.00,16,7,25,0.00
2014-2-21,51.0,41.3,30.0,29.0,24.4,22.0,80,53,33,0.00,40.00,17,6,27,0.00
2014-2-22,45.0,35.4,24.0,28.0,22.0,-99.9,83,62,32,0.00,40.00,7,3,13,0.00
2014-2-23,40.0,35.8,32.0,33.0,29.7,28.0,87,79,65,0.00,40.00,7,4,12,0.00
2014-2-24,37.0,34.1,32.0,32.0,28.8,26.0,95,81,67,0.00,40.00,12,5,17,0.02
2014-2-25,39.0,35.3,31.0,29.0,24.3,19.0,89,66,45,0.00,40.00,9,5,15,0.01
2014-2-26,45.0,36.6,29.0,30.0,22.4,17.0,84,57,35,0.00,40.00,7,4,16,0.01
2014-2-27,43.0,37.5,33.0,35.0,30.1,25.0,91,76,49,0.00,40.00,7,3,9,0.00
2014-2-28,53.0,38.7,26.0,36.0,30.2,20.0,100,75,42,0.00,40.00,13,5,18,0.00
2014-3-1,37.0,28.2,24.0,20.0,6.7,-99.9,57,41,32,0.00,40.00,11,9,19,0.00
2014-3-2,27.0,25.0,24.0,23.0,16.5,11.0,90,71,53,0.00,40.00,7,4,11,0.03
2014-3-3,37.0,27.5,17.0,29.0,23.4,15.0,96,85,69,0.00,40.00,8,4,11,0.06
2014-3-4,64.0,41.4,23.0,39.0,33.2,22.0,97,76,39,0.00,40.00,10,4,17,0.01
2014-3-5,67.0,51.9,43.0,52.0,45.7,38.0,100,82,48,0.00,40.00,18,6,28,0.27
2014-3-6,60.0,54.6,38.0,48.0,37.8,34.0,88,54,42,0.00,40.00,29,15,49,0.03
2014-3-7,62.0,50.4,35.0,38.0,34.8,31.0,90,60,31,0.00,40.00,16,7,25,0.00
2014-3-8,49.0,41.1,31.0,43.0,35.7,-99.9,99,84,66,0.00,40.00,5,2,8,0.00
2014-3-9,67.0,59.6,52.0,49.0,42.6,37.0,72,54,38,0.00,40.00,15,10,25,0.00
2014-3-10,61.0,52.6,46.0,40.0,33.5,27.0,72,50,29,0.00,40.00,26,14,36,0.00
2014-3-11,61.0,49.8,33.0,31.0,27.1,22.0,76,44,22,0.00,40.00,15,7,25,0.00
2014-3-12,62.0,43.1,24.0,32.0,27.7,22.0,91,61,29,0.00,40.00,7,3,12,0.00
2014-3-13,65.0,49.3,33.0,36.0,31.4,28.0,84,54,26,0.00,40.00,10,5,13,0.00
2014-3-14,64.0,52.1,43.0,45.0,35.8,24.0,91,58,22,0.00,40.00,23,9,38,0.01
2014-3-15,67.0,50.7,38.0,39.0,31.2,-99.9,79,51,26,0.00,40.00,16,5,25,0.01
2014-3-16,68.0,58.7,48.0,43.0,38.0,-99.9,63,48,36,0.00,40.00,24,13,33,0.00
2014-3-17,55.0,49.6,43.0,31.0,23.5,18.0,54,37,23,0.00,40.00,32,26,47,0.00
2014-3-18,59.0,45.4,29.0,26.0,23.0,20.0,74,44,23,0.00,40.00,10,5,13,0.00
2014-3-19,62.0,44.5,28.0,36.0,28.2,22.0,88,56,29,0.00,40.00,16,6,34,0.00
2014-3-20,56.0,44.5,35.0,27.0,20.4,14.0,68,41,20,0.00,40.00,23,13,32,0.00
2014-3-21,54.0,40.8,29.0,22.0,18.0,-99.9,70,45,21,0.00,40.00,9,5,15,0.00
2014-3-22,59.0,41.4,21.0,23.0,17.0,-99.9,81,43,17,0.00,40.00,9,5,17,0.00
2014-3-23,61.0,48.6,36.0,31.0,25.8,19.0,70,44,25,0.00,40.00,12,6,18,0.00
2014-3-24,65.0,56.6,45.0,30.0,27.1,24.0,49,33,23,0.00,40.00,10,6,16,0.00
2014-3-25,63.0,51.7,43.0,36.0,29.7,27.0,56,44,30,0.00,40.00,19,9,37,0.00
2014-3-26,60.0,49.7,34.0,36.0,34.1,31.0,91,57,37,0.00,40.00,12,6,20,0.00
2014-3-27,62.0,51.1,37.0,37.0,34.1,28.0,92,56,30,0.00,40.00,14,6,27,0.00
2014-3-28,52.0,45.1,32.0,50.0,42.2,29.0,100,90,65,0.00,40.00,10,6,14,0.07
2014-3-29,62.0,50.5,39.0,43.0,34.0,-99.9,93,58,33,0.00,40.00,19,9,31,0.04
2014-3-30,61.0,48.3,36.0,37.0,30.6,24.0,87,55,26,0.00,40.00,15,8,24,0.00
2014-3-31,62.0,47.1,26.0,35.0,30.6,25.0,94,57,29,0.00,40.00,8,4,15,0.00
2014-4-1,64.0,53.4,42.0,35.0,28.6,-99.9,69,42,22,0.00,40.00,12,8,18,0.00
2014-4-2,68.0,54.6,43.0,33.0,26.8,16.0,61,38,17,0.00,40.00,16,11,23,0.00
2014-4-3,64.0,51.5,31.0,33.0,29.9,21.0,81,47,19,0.00,40.00,20,8,29,0.00
2014-4-4,61.0,53.1,45.0,36.0,32.1,27.0,64,46,27,0.00,40.00,18,8,30,0.00
2014-4-5,64.0,51.9,36.0,41.0,33.5,-99.9,84,54,31,0.00,40.00,14,7,23,0.00
2014-4-6,70.0,57.8,45.0,40.0,37.2,34.0,75,49,30,0.00,40.00,18,10,29,0.00
2014-4-7,77.0,60.9,38.0,41.0,39.1,36.0,92,50,24,0.00,40.00,15,6,20,0.00
2014-4-8,81.0,65.3,42.0,46.0,39.9,31.0,84,45,16,0.00,40.00,19,9,31,0.00
2014-4-9,68.0,58.1,50.0,41.0,22.6,8.0,58,29,10,0.00,40.00,21,13,31,0.00
2014-4-10,68.0,55.9,36.0,34.0,26.1,21.0,69,34,20,0.00,40.00,15,7,24,0.00
2014-4-11,73.0,59.2,47.0,33.0,27.7,21.0,48,31,16,0.00,40.00,23,14,33,0.00
2014-4-12,68.0,56.2,42.0,32.0,26.2,-99.9,63,35,19,0.00,40.00,14,10,30,0.00
2014-4-13,66.0,55.0,40.0,27.0,21.5,18.0,51,29,17,0.00,40.00,13,6,19,0.00
2014-4-14,68.0,49.0,25.0,33.0,22.1,16.0,79,41,15,0.00,40.00,12,4,24,0.00
2014-4-15,66.0,57.5,50.0,33.0,26.9,22.0,48,32,19,0.00,40.00,34,20,44,0.00
2014-4-16,66.0,56.8,49.0,42.0,36.4,32.0,68,48,31,0.00,40.00,14,6,27,0.00
2014-4-17,59.0,54.0,48.0,51.0,46.9,38.0,98,78,56,0.00,40.00,18,6,30,0.04
2014-4-18,64.0,51.2,38.0,38.0,30.0,22.0,76,49,20,0.00,40.00,18,11,30,0.03
2014-4-19,66.0,49.8,30.0,36.0,30.2,-99.9,93,53,25,0.00,40.00,25,10,36,0.00
2014-4-20,67.0,54.2,37.0,35.0,30.1,24.0,83,45,21,0.00,40.00,12,7,17,0.00
2014-4-21,70.0,55.6,40.0,49.0,34.8,30.0,85,49,24,0.00,40.00,15,6,21,0.04
2014-4-22,61.0,52.2,43.0,49.0,38.3,27.0,100,65,28,0.00,40.00,17,11,27,0.31
2014-4-23,59.0,50.2,41.0,48.0,38.7,34.0,94,67,43,0.00,40.00,15,7,23,0.02
2014-4-24,69.0,56.7,49.0,48.0,40.2,33.0,94,58,27,0.00,40.00,23,12,31,0.02
2014-4-25,62.0,51.9,44.0,42.0,35.9,29.0,87,57,31,0.00,40.00,13,6,21,0.00
2014-4-26,63.0,50.6,41.0,40.0,32.7,25.0,84,55,23,0.00,40.00,14,9,23,0.00
2014-4-28,67.0,59.6,40.0,30.0,22.6,19.0,67,27,16,0.00,40.00,6,4,12,0.00
2014-4-29,74.0,55.0,33.0,34.0,28.0,19.0,86,44,13,0.00,40.00,9,5,17,0.00
2014-4-30,82.0,62.1,44.0,38.0,32.6,28.0,65,39,14,0.00,40.00,7,5,17,0.00
2014-5-1,86.0,65.4,45.0,43.0,36.4,30.0,76,41,14,0.00,40.00,8,4,14,0.00
2014-5-2,87.0,71.7,50.0,45.0,37.5,27.0,73,35,12,0.00,40.00,16,8,22,0.00
2014-5-3,72.0,62.5,51.0,48.0,36.7,-99.9,73,42,23,0.00,40.00,18,12,32,0.00
2014-5-4,69.0,59.6,50.0,41.0,37.0,29.0,70,44,26,0.00,40.00,23,13,41,0.00
2014-5-5,70.0,57.8,42.0,41.0,36.5,31.0,83,48,25,0.00,40.00,19,10,28,0.00
2014-5-6,72.0,60.9,47.0,39.0,35.4,31.0,68,42,23,0.00,40.00,18,10,30,0.00
2014-5-13,80.0,72.9,56.0,41.0,31.1,25.0,55,26,13,0.00,40.00,6,4,14,0.00
2014-5-14,88.0,68.1,43.0,42.0,36.7,32.0,82,40,14,0.00,40.00,10,4,14,0.00
2014-5-15,90.0,70.3,50.0,53.0,43.4,36.0,80,45,16,0.00,40.00,7,4,12,0.00
2014-5-16,87.0,72.5,59.0,51.0,41.9,27.0,69,38,12,0.00,40.00,19,10,32,0.00
2014-5-17,77.0,65.9,55.0,43.0,37.7,-99.9,58,38,20,0.00,40.00,17,11,27,0.00
2014-5-18,76.0,61.9,47.0,49.0,40.7,36.0,78,49,24,0.00,40.00,16,9,27,0.01
2014-5-19,77.0,62.3,48.0,43.0,36.5,-99.9,74,44,22,0.00,40.00,17,8,22,0.01
2014-5-20,83.0,68.5,53.0,45.0,40.7,36.0,67,40,19,0.00,40.00,11,7,17,0.00
2014-5-21,85.0,71.2,55.0,44.0,39.9,28.0,64,36,13,0.00,40.00,12,8,20,0.00
2014-5-22,90.0,73.6,54.0,53.0,44.1,39.0,71,39,17,0.00,40.00,11,6,16,0.00
2014-5-23,80.0,71.0,60.0,52.0,47.9,44.0,66,45,33,0.00,40.00,19,10,28,0.00
2014-5-24,82.0,68.0,57.0,47.0,38.4,-99.9,60,38,17,0.00,40.00,15,10,24,0.00
2014-5-25,81.0,65.5,49.0,47.0,40.7,33.0,79,44,18,0.00,40.00,14,7,28,0.00
2014-5-26,75.0,63.4,44.0,47.0,41.8,36.0,89,49,26,0.00,40.00,22,9,28,0.00
2014-5-27,77.0,63.0,49.0,41.0,35.0,20.0,69,40,12,0.00,40.00,16,8,22,0.00
2014-5-28,70.0,60.5,49.0,41.0,36.3,30.0,61,42,23,0.00,40.00,23,13,31,0.11
2014-5-29,77.0,62.0,47.0,43.0,37.8,29.0,78,45,18,0.00,40.00,16,8,22,0.01
2014-5-30,81.0,65.4,47.0,45.0,39.0,29.0,74,42,15,0.00,40.00,10,7,16,0.00
2014-5-31,86.0,73.1,58.0,41.0,37.1,-99.9,52,29,16,0.00,40.00,17,8,25,0.00
2014-6-1,86.0,69.1,53.0,45.0,41.2,35.0,73,40,17,0.00,40.00,17,7,25,0.00
2014-6-2,90.0,83.4,74.0,47.0,42.9,38.0,37,25,17,0.00,40.00,11,7,20,0.00
2014-6-3,89.0,75.5,62.0,48.0,44.2,37.0,60,35,17,0.00,40.00,21,12,29,0.00
2014-6-4,89.0,73.7,58.0,44.0,37.5,26.0,55,31,12,0.00,40.00,24,11,33,0.00
2014-6-5,83.0,70.1,57.0,42.0,32.1,23.0,51,28,12,0.00,40.00,23,9,32,0.00
2014-6-6,83.0,71.9,60.0,41.0,31.4,22.0,45,25,11,0.00,40.00,13,8,17,0.00
2014-6-7,87.0,72.8,60.0,45.0,38.0,-99.9,45,30,18,0.00,40.00,12,8,20,0.00
2014-6-8,89.0,75.1,60.0,47.0,43.5,40.0,58,35,18,0.00,40.00,18,9,24,0.00
2014-6-9,86.0,73.3,64.0,48.0,40.8,31.0,57,34,14,0.00,40.00,20,15,31,0.00
2014-6-10,82.0,70.7,59.0,42.0,38.2,31.0,52,33,18,0.00,40.00,21,13,30,0.00
2014-6-11,83.0,68.3,50.0,44.0,39.3,33.0,73,39,17,0.00,40.00,10,6,21,0.00
2014-6-12,88.0,71.1,56.0,45.0,40.7,30.0,62,37,13,0.00,40.00,22,10,33,0.00
2014-6-13,66.0,60.0,55.0,54.0,45.1,39.0,81,58,40,0.00,40.00,21,12,28,0.03
2014-6-14,79.0,65.2,55.0,44.0,40.4,-99.9,61,43,28,0.00,40.00,23,15,35,0.01
2014-6-15,74.0,64.4,55.0,44.0,39.9,34.0,63,43,23,0.00,40.00,21,11,32,0.00
2014-6-16,70.0,59.4,52.0,50.0,38.2,34.0,89,47,30,0.00,40.00,21,10,34,0.16
2014-6-17,70.0,60.5,51.0,57.0,49.7,42.0,99,71,36,0.00,40.00,9,4,15,0.19
2014-6-18,83.0,67.2,50.0,53.0,47.6,36.0,95,56,26,0.00,40.00,15,6,20,0.02
2014-6-19,90.0,72.7,54.0,49.0,40.4,34.0,69,35,16,0.00,40.00,19,7,24,0.00
2014-6-20,81.0,70.5,60.0,51.0,41.2,31.0,64,38,16,0.00,40.00,22,14,32,0.00
2014-6-21,80.0,65.1,44.0,45.0,35.2,-99.9,80,39,16,0.00,40.00,16,5,27,0.00
2014-6-22,88.0,71.0,47.0,49.0,37.9,30.0,71,36,14,0.00,40.00,7,4,14,0.00
2014-6-23,94.0,74.9,52.0,49.0,41.3,31.0,74,37,11,0.00,40.00,16,6,25,0.00
2014-6-24,86.0,75.3,63.0,52.0,45.6,39.0,68,37,19,0.00,40.00,23,13,35,0.00
2014-6-25,86.0,75.4,61.0,50.0,46.2,42.0,64,38,22,0.00,40.00,12,8,16,0.00
2014-6-26,82.0,72.3,64.0,63.0,53.6,47.0,76,54,30,0.00,40.00,13,6,25,0.03
2014-6-27,83.0,69.4,60.0,53.0,50.2,46.0,75,53,27,0.00,40.00,20,12,36,0.02
2014-6-28,84.0,69.2,58.0,49.0,44.4,-99.9,69,45,24,0.00,40.00,14,10,25,0.02
2014-6-29,82.0,70.3,57.0,49.0,42.7,37.0,68,40,20,0.00,40.00,22,14,31,0.00
2014-6-30,87.0,71.2,55.0,52.0,43.1,38.0,65,41,18,0.00,40.00,12,6,17,0.00
2014-7-1,98.0,78.5,58.0,53.0,45.9,39.0,65,36,13,0.00,40.00,10,6,21,0.00
2014-7-2,95.0,82.3,68.0,56.0,48.6,43.0,54,33,17,0.00,40.00,14,6,24,0.00
2014-7-3,91.0,78.7,67.0,52.0,41.9,34.0,54,30,14,0.00,40.00,23,14,33,0.00
2014-7-4,91.0,74.4,60.0,50.0,41.6,37.0,55,33,16,0.00,40.00,21,9,32,0.00
2014-7-5,95.0,79.6,67.0,52.0,37.2,-99.9,44,24,14,0.00,40.00,17,9,23,0.00
2014-7-6,99.0,82.4,69.0,55.0,51.5,43.0,55,37,16,0.00,40.00,14,10,26,0.00
2014-7-7,96.0,84.4,73.0,56.0,52.6,48.0,54,35,20,0.00,40.00,12,7,22,0.00
2014-7-8,103.0,89.1,73.0,57.0,51.9,45.0,50,31,17,0.00,40.00,12,8,16,0.00
2014-7-9,103.0,86.0,70.0,48.0,42.4,33.0,42,24,9,0.00,40.00,22,10,30,0.00
2014-7-10,99.0,84.8,61.0,48.0,37.8,30.0,63,21,9,0.00,40.00,20,8,30,0.00
2014-7-11,100.0,85.5,69.0,59.0,42.9,35.0,63,26,11,0.00,40.00,13,7,17,0.00
2014-7-12,104.0,83.0,64.0,57.0,46.2,36.0,65,32,10,0.00,40.00,9,5,14,0.00
2014-7-13,103.0,87.0,67.0,60.0,49.8,37.0,68,32,12,0.00,40.00,13,6,23,0.00
2014-7-14,103.0,89.6,71.0,59.0,51.9,45.0,63,30,15,0.00,40.00,12,8,25,0.00
2014-7-15,105.0,88.4,71.0,64.0,54.3,43.0,63,36,13,0.00,40.00,9,5,14,0.00
2014-7-16,110.0,92.8,70.0,55.0,45.3,31.0,55,24,7,0.00,40.00,13,7,17,0.00
2014-7-17,99.0,84.6,72.0,52.0,47.7,40.0,47,29,13,0.00,40.00,25,14,38,0.00
2014-7-18,96.0,79.5,60.0,52.0,46.8,42.0,69,34,19,0.00,40.00,22,10,38,0.00
2014-7-19,95.0,82.7,71.0,59.0,53.8,50.0,67,39,24,0.00,40.00,22,14,33,0.00
2014-7-20,87.0,72.2,64.0,59.0,50.8,43.0,69,50,22,0.00,40.00,19,12,28,0.00
2014-7-21,84.0,71.9,61.0,50.0,43.9,39.0,52,38,21,0.00,40.00,17,9,28,0.00
2014-7-22,85.0,74.6,68.0,62.0,52.6,48.0,78,48,33,0.00,40.00,9,4,15,0.01
2014-7-23,83.0,70.2,59.0,62.0,55.3,45.0,87,61,38,0.00,40.00,25,9,42,0.01
2014-7-24,81.0,65.2,46.0,47.0,45.2,42.0,92,52,28,0.00,40.00,16,9,27,0.00
2014-7-25,86.0,70.2,53.0,50.0,45.5,42.0,77,46,23,0.00,40.00,16,7,23,0.00
2014-7-26,94.0,75.2,54.0,50.0,44.7,39.0,79,39,15,0.00,40.00,9,5,23,0.00
2014-7-27,96.0,82.3,61.0,54.0,46.8,36.0,70,34,13,0.00,40.00,10,6,23,0.00
2014-7-28,105.0,88.5,67.0,60.0,48.0,37.0,53,29,10,0.00,40.00,11,7,15,0.00
2014-7-29,107.0,88.9,64.0,55.0,48.7,41.0,69,29,11,0.00,40.00,11,7,17,0.00
2014-7-30,107.0,88.6,72.0,52.0,43.9,33.0,50,25,8,0.00,40.00,14,8,22,0.00
2014-7-31,104.0,83.9,69.0,55.0,43.2,31.0,51,30,9,0.00,40.00,14,7,20,0.00
2014-8-1,101.0,85.0,72.0,60.0,52.8,45.0,58,37,15,0.00,40.00,9,6,14,0.00
2014-8-2,95.0,83.9,69.0,63.0,52.8,47.0,57,36,24,0.00,40.00,13,7,21,0.00
2014-8-3,100.0,83.0,66.0,61.0,53.0,40.0,74,40,13,0.00,40.00,9,6,13,0.00
2014-8-4,103.0,89.3,75.0,55.0,48.7,41.0,47,27,12,0.00,40.00,11,7,16,0.00
2014-8-5,104.0,86.7,73.0,54.0,42.4,33.0,38,24,9,0.00,40.00,13,7,18,0.00
2014-8-6,97.0,79.1,64.0,52.0,46.1,42.0,61,34,16,0.00,40.00,12,7,21,0.00
2014-8-7,98.0,86.5,72.0,50.0,45.7,39.0,46,26,14,0.00,40.00,17,7,29,0.00
2014-8-8,93.0,77.2,62.0,52.0,45.9,37.0,63,37,14,0.00,40.00,18,8,26,0.00
2014-8-9,94.0,77.0,56.0,55.0,45.2,38.0,75,37,15,0.00,40.00,18,6,26,0.00
2014-8-10,98.0,83.9,57.0,55.0,45.8,35.0,77,31,11,0.00,40.00,11,6,13,0.00
2014-8-11,102.0,86.0,65.0,53.0,44.7,40.0,56,26,12,0.00,40.00,12,6,17,0.00
2014-8-12,99.0,84.7,70.0,62.0,55.1,45.0,77,40,18,0.00,40.00,30,8,55,0.01
2014-8-13,88.0,72.9,59.0,64.0,59.9,55.0,100,69,34,0.00,40.00,17,6,27,0.54
2014-8-14,80.0,70.9,64.0,64.0,61.6,57.0,95,75,47,0.00,40.00,13,6,25,0.79
2014-8-15,81.0,70.8,65.0,66.0,63.9,58.0,100,80,52,0.00,40.00,10,5,17,0.21
2014-8-16,88.0,75.8,64.0,59.0,57.1,54.0,78,55,32,0.00,40.00,13,6,17,0.01
2014-8-17,92.0,79.5,66.0,66.0,58.4,54.0,76,52,29,0.00,40.00,10,6,14,0.00
2014-8-18,96.0,80.8,69.0,62.0,57.0,43.0,74,49,17,0.00,40.00,10,6,13,0.00
2014-8-19,95.0,81.9,73.0,60.0,54.9,51.0,61,42,23,0.00,40.00,17,8,28,0.00
2014-8-20,89.0,78.3,66.0,56.0,50.9,46.0,66,41,24,0.00,40.00,17,9,26,0.00
2014-8-21,85.0,72.4,54.0,52.0,48.0,34.0,88,46,24,0.00,40.00,19,6,29,0.00
2014-8-22,83.0,73.5,65.0,53.0,50.9,49.0,60,46,32,0.00,40.00,19,12,29,0.00
2014-8-23,84.0,70.6,61.0,56.0,49.5,45.0,74,49,26,0.00,40.00,10,6,21,0.00
2014-8-24,84.0,70.0,55.0,53.0,50.6,48.0,83,54,30,0.00,40.00,14,6,19,0.00
2014-8-25,87.0,74.0,63.0,55.0,48.8,44.0,71,44,23,0.00,40.00,8,5,17,0.00
2014-8-26,93.0,73.9,55.0,54.0,50.1,44.0,87,49,19,0.00,40.00,9,4,19,0.00
2014-8-27,99.0,79.6,57.0,55.0,51.6,47.0,82,43,20,0.00,40.00,19,6,27,0.00
2014-8-28,92.0,79.2,69.0,55.0,50.1,41.0,60,39,18,0.00,40.00,19,12,27,0.00
2014-8-29,88.0,73.1,60.0,55.0,50.4,46.0,79,47,25,0.00,40.00,22,10,30,0.00
2014-8-30,82.0,70.1,62.0,53.0,48.1,46.0,64,46,29,0.00,40.00,21,9,30,0.00
2014-8-31,77.0,68.1,60.0,50.0,43.0,39.0,60,42,27,0.00,40.00,20,14,30,0.00
2014-9-1,85.0,69.9,52.0,50.0,44.4,40.0,77,43,22,0.00,40.00,18,7,30,0.00
2014-9-2,86.0,70.4,58.0,51.0,46.5,40.0,76,46,22,0.00,40.00,21,11,30,0.00
2014-9-3,79.0,66.5,56.0,46.0,41.8,38.0,68,43,23,0.00,40.00,20,12,30,0.00
2014-9-4,79.0,64.6,50.0,48.0,44.9,42.0,83,53,27,0.00,40.00,8,5,17,0.00
2014-9-5,86.0,68.0,51.0,47.0,42.7,37.0,79,46,18,0.00,40.00,11,6,19,0.00
2014-9-6,88.0,68.7,49.0,47.0,41.8,37.0,75,43,19,0.00,40.00,7,5,12,0.00
2014-9-7,94.0,70.8,46.0,45.0,39.6,35.0,84,39,13,0.00,40.00,14,5,20,0.00
2014-9-8,88.0,74.9,51.0,50.0,42.6,34.0,69,34,17,0.00,40.00,19,12,27,0.00
2014-9-9,81.0,69.7,58.0,50.0,46.0,42.0,73,46,26,0.00,40.00,16,9,23,0.00
2014-9-10,73.0,67.1,57.0,44.0,32.5,22.0,52,29,16,0.00,40.00,15,11,27,0.00
2014-9-11,71.0,59.1,46.0,34.0,27.8,25.0,57,32,18,0.00,40.00,15,10,27,0.00
2014-9-12,77.0,59.9,43.0,35.0,28.3,25.0,57,33,16,0.00,40.00,10,6,17,0.00
2014-9-13,81.0,63.4,48.0,38.0,31.0,24.0,53,32,17,0.00,40.00,9,6,13,0.00
2014-9-14,84.0,65.0,41.0,41.0,37.1,32.0,83,43,16,0.00,40.00,6,4,11,0.00
2014-9-15,87.0,66.8,44.0,47.0,40.1,32.0,84,44,14,0.00,40.00,8,5,11,0.00
2014-9-16,87.0,69.8,54.0,55.0,42.7,37.0,75,42,20,0.00,40.00,6,4,10,0.00
2014-9-17,85.0,68.4,53.0,58.0,49.3,45.0,81,55,25,0.00,40.00,7,4,14,0.00
2014-9-18,82.0,72.2,64.0,54.0,50.7,48.0,69,48,34,0.00,40.00,23,10,32,0.00
2014-9-19,87.0,73.2,59.0,54.0,50.3,47.0,75,48,25,0.00,40.00,17,7,32,0.00
2014-9-20,88.0,71.5,59.0,58.0,51.2,49.0,81,52,27,0.00,40.00,9,5,15,0.00
2014-9-21,92.0,73.1,60.0,55.0,47.9,42.0,69,45,18,0.00,40.00,7,4,9,0.00
2014-9-22,87.0,69.5,53.0,54.0,50.7,48.0,83,56,28,0.00,40.00,6,4,10,0.00
2014-9-23,77.0,68.9,59.0,62.0,56.9,51.0,83,67,49,0.00,40.00,7,4,12,0.00
2014-9-24,72.0,65.4,59.0,60.0,55.8,48.0,99,73,44,0.00,40.00,15,6,23,0.10
2014-9-25,67.0,59.8,51.0,59.0,57.0,50.0,100,91,71,0.00,40.00,6,3,9,0.24
2014-9-26,75.0,59.1,44.0,55.0,50.1,44.0,100,77,42,0.00,40.00,8,4,14,0.01
2014-9-27,77.0,64.2,55.0,53.0,49.5,46.0,85,61,34,0.00,40.00,12,8,20,0.00
2014-9-28,80.0,67.5,54.0,53.0,47.5,44.0,83,52,29,0.00,40.00,13,7,21,0.00
2014-9-29,81.0,68.6,59.0,53.0,48.0,41.0,69,50,25,0.00,40.00,14,9,21,0.00
2014-9-30,72.0,62.4,54.0,47.0,39.7,36.0,61,45,27,0.00,40.00,26,18,35,0.00
2014-10-1,73.0,59.8,43.0,43.0,39.6,36.0,84,50,26,0.00,40.00,14,8,22,0.00
2014-10-2,70.0,58.2,45.0,44.0,38.0,32.0,81,51,24,0.00,40.00,14,6,26,0.00
2014-10-3,76.0,54.7,38.0,41.0,36.3,30.0,89,58,19,0.00,40.00,6,3,11,0.00
2014-10-4,76.0,56.7,41.0,55.0,42.2,37.0,87,62,29,0.00,40.00,6,3,9,0.00
2014-10-5,84.0,65.1,48.0,55.0,47.8,44.0,89,58,28,0.00,40.00,10,4,13,0.00
2014-10-6,93.0,69.0,47.0,58.0,50.3,45.0,95,58,24,0.00,40.00,10,4,14,0.00
2014-10-7,88.0,71.2,52.0,55.0,51.8,50.0,93,54,28,0.00,40.00,8,5,13,0.00
2014-10-8,78.0,66.1,52.0,53.0,47.7,42.0,75,54,29,0.00,40.00,13,5,20,0.00
2014-10-9,80.0,60.3,43.0,48.0,44.4,41.0,95,62,27,0.00,40.00,4,3,9,0.00
2014-10-10,79.0,63.7,41.0,52.0,46.6,40.0,97,58,30,0.00,40.00,12,5,20,0.00
2014-10-11,76.0,64.0,59.0,49.0,42.3,38.0,67,46,30,0.00,40.00,27,12,42,0.00
2014-10-12,72.0,61.8,52.0,43.0,39.2,33.0,64,45,25,0.00,40.00,19,9,32,0.00
2014-10-13,73.0,57.5,42.0,45.0,41.0,36.0,92,59,28,0.00,40.00,7,3,10,0.00
2014-10-14,67.0,59.4,54.0,53.0,46.9,41.0,94,66,39,0.00,40.00,17,5,25,0.02
2014-10-15,65.0,54.7,46.0,53.0,47.4,41.0,100,79,44,0.00,40.00,21,8,32,0.10
2014-10-16,67.0,52.6,38.0,46.0,42.9,37.0,99,73,42,0.00,40.00,7,4,14,0.01
2014-10-17,63.0,54.2,47.0,52.0,44.7,42.0,94,72,47,0.00,40.00,8,4,12,0.01
2014-10-18,72.0,56.9,47.0,55.0,50.9,47.0,100,82,51,0.00,40.00,7,3,9,0.02
2014-10-19,72.0,57.9,50.0,53.0,50.4,48.0,95,79,47,0.00,40.00,8,5,11,0.00
2014-10-20,66.0,53.1,42.0,54.0,49.3,42.0,100,88,64,0.00,40.00,12,4,24,0.15
2014-10-21,68.0,53.7,40.0,51.0,45.0,40.0,100,77,40,0.00,40.00,14,5,21,0.15
2014-10-22,60.0,53.7,43.0,55.0,49.7,42.0,100,87,68,0.00,40.00,9,4,15,0.06
2014-10-23,63.0,56.1,46.0,53.0,46.2,39.0,91,71,46,0.00,40.00,17,8,25,0.02
2014-10-24,57.0,48.5,40.0,49.0,43.2,39.0,98,83,58,0.00,40.00,9,5,12,0.09
2014-10-25,62.0,54.1,46.0,51.0,46.7,36.0,94,78,46,0.00,40.00,29,8,41,0.09
2014-10-26,62.0,53.5,46.0,41.0,38.1,34.0,73,56,41,0.00,40.00,29,12,41,0.00
2014-10-27,59.0,46.9,39.0,39.0,35.7,34.0,85,66,40,0.00,40.00,13,5,23,0.00
2014-10-28,53.0,47.2,40.0,47.0,43.3,39.0,100,87,68,0.00,40.00,5,2,9,0.12
2014-10-29,60.0,48.2,39.0,52.0,46.7,39.0,100,95,72,0.00,40.00,7,3,10,0.02
2014-10-30,58.0,53.8,50.0,52.0,50.3,49.0,98,88,79,0.00,40.00,10,7,14,0.01
2014-10-31,55.0,51.7,49.0,54.0,50.7,43.0,100,96,79,0.00,40.00,10,4,12,0.09
2014-11-1,60.0,51.0,45.0,45.0,40.2,34.0,95,68,50,0.00,40.00,22,9,29,0.01
2014-11-2,64.0,52.9,46.0,47.0,37.4,33.0,99,58,33,0.00,40.00,22,11,33,0.02
2014-11-3,59.0,51.5,44.0,50.0,47.1,44.0,100,86,64,0.00,40.00,7,3,17,0.02
2014-11-4,69.0,57.2,51.0,54.0,48.8,42.0,100,75,51,0.00,40.00,15,8,22,0.21
2014-11-5,62.0,54.0,47.0,51.0,46.7,42.0,98,77,60,0.00,40.00,10,4,14,0.03
2014-11-6,67.0,56.1,49.0,53.0,47.7,39.0,100,76,46,0.00,40.00,26,9,44,0.03
2014-11-7,61.0,50.2,35.0,39.0,36.2,34.0,97,62,37,0.00,40.00,16,7,24,0.00
2014-11-8,55.0,41.0,30.0,42.0,36.9,30.0,100,86,56,0.00,40.00,5,3,8,0.00
2014-11-9,62.0,46.2,35.0,44.0,38.8,35.0,100,79,47,0.00,40.00,27,8,41,0.00
2014-11-10,53.0,43.9,36.0,36.0,29.3,24.0,85,59,33,0.00,40.00,9,4,13,0.00
2014-11-11,42.0,33.7,27.0,24.0,8.9,-1.0,58,36,20,0.00,40.00,18,12,27,0.00
2014-11-12,36.0,26.4,20.0,9.0,3.8,-1.0,62,39,21,0.00,40.00,13,9,21,0.00
2014-11-13,34.0,26.8,17.0,20.0,8.9,6.0,75,47,30,0.00,40.00,9,4,15,0.00
2014-11-14,39.0,27.4,14.0,22.0,14.2,9.0,89,62,30,0.00,40.00,6,3,14,0.00
2014-11-15,38.0,20.2,8.0,20.0,11.2,4.0,91,71,33,0.00,40.00,5,3,9,0.00
2014-11-16,35.0,19.6,9.0,22.0,14.6,6.0,95,82,50,0.00,40.00,5,3,7,0.00
2014-11-17,20.0,17.6,13.0,19.0,16.2,11.0,97,94,91,0.00,40.00,3,2,5,0.00
2014-11-18,20.0,18.1,16.0,19.0,16.6,14.0,95,94,92,0.00,40.00,2,1,4,0.00
2014-11-19,26.0,22.5,19.0,26.0,21.9,18.0,100,97,95,0.00,40.00,3,1,5,0.00
2014-11-20,30.0,27.7,22.0,30.0,27.7,21.0,100,100,97,0.00,40.00,4,2,6,0.01
2014-11-21,32.0,29.3,23.0,32.0,29.3,23.0,100,100,99,0.00,40.00,8,2,10,0.14
2014-11-22,43.0,35.4,27.0,40.0,33.0,27.0,100,91,68,0.00,40.00,13,5,24,0.05
2014-11-23,53.0,40.0,27.0,40.0,33.3,27.0,100,79,55,0.00,40.00,17,8,28,0.02
2014-11-24,44.0,37.8,28.0,37.0,33.6,28.0,100,85,73,0.00,40.00,8,4,17,0.00
2014-11-25,46.0,39.7,32.0,43.0,38.8,32.0,100,97,83,0.00,40.00,9,4,13,0.05
2014-11-26,41.0,39.5,39.0,41.0,39.5,39.0,100,100,100,0.00,40.00,4,2,6,0.01
2014-11-27,65.0,52.6,37.0,48.0,43.0,37.0,100,74,49,0.00,40.00,25,14,40,0.01
2014-11-28,62.0,56.2,40.0,46.0,43.6,31.0,78,62,53,0.00,40.00,25,17,37,0.01
2014-11-29,41.0,28.8,12.0,31.0,14.9,4.0,79,56,38,0.00,40.00,14,8,24,0.00
2014-11-30,29.0,17.6,7.0,11.0,5.5,1.0,79,61,33,0.00,40.00,8,4,14,0.00
2014-12-1,28.0,19.6,10.0,15.0,11.0,6.0,87,70,49,0.00,40.00,8,3,9,0.00
2014-12-2,30.0,20.0,8.0,18.0,13.2,4.0,88,75,58,0.00,40.00,9,6,14,0.00
2014-12-3,35.0,27.3,17.0,25.0,18.4,14.0,88,71,46,0.00,40.00,9,4,11,0.00
2014-12-4,35.0,31.6,29.0,33.0,28.9,25.0,100,90,80,0.00,40.00,5,2,7,0.15
2014-12-5,38.0,34.5,32.0,36.0,33.4,32.0,100,96,84,0.00,40.00,7,3,9,0.08
2014-12-6,48.0,37.4,30.0,40.0,35.9,30.0,100,94,72,0.00,40.00,9,4,13,0.13
2014-12-7,43.0,37.8,29.0,39.0,35.9,29.0,100,93,85,0.00,40.00,8,5,12,0.01
2014-12-8,42.0,39.3,35.0,40.0,38.1,35.0,100,95,86,0.00,40.00,5,2,7,0.01
2014-12-9,41.0,38.4,37.0,41.0,38.4,37.0,100,99,100,0.00,40.00,5,3,8,0.04
2014-12-10,56.0,41.9,38.0,45.0,40.3,38.0,100,93,50,0.00,40.00,10,4,21,0.09
2014-12-11,58.0,47.3,41.0,46.0,42.2,36.0,100,85,47,0.00,40.00,20,8,31,0.02
2014-12-12,55.0,48.0,43.0,42.0,38.6,35.0,89,70,53,0.00,40.00,21,7,31,0.01
2014-12-13,56.0,40.6,28.0,37.0,32.7,27.0,98,77,40,0.00,40.00,11,4,19,0.00
2014-12-14,40.0,33.1,25.0,35.0,30.8,25.0,100,91,76,0.00,40.00,9,5,12,0.00
2014-12-15,41.0,34.4,27.0,34.0,31.4,27.0,100,89,71,0.00,40.00,7,3,10,0.00
2014-12-16,39.0,36.8,34.0,38.0,35.6,31.0,100,95,81,0.00,40.00,8,5,11,0.05
2014-12-17,42.0,38.4,35.0,39.0,37.0,35.0,100,95,81,0.00,40.00,7,4,9,0.01
2014-12-18,40.0,38.2,36.0,39.0,38.1,36.0,100,100,97,0.00,40.00,6,3,9,0.01
2014-12-19,45.0,36.6,31.0,45.0,36.4,31.0,100,100,89,0.00,40.00,5,2,8,0.03
2014-12-20,45.0,37.3,32.0,45.0,36.6,32.0,100,98,100,0.00,40.00,5,2,11,0.12
2014-12-21,61.0,50.7,44.0,50.0,41.2,37.0,100,72,44,0.00,40.00,19,9,30,0.01
2014-12-22,54.0,45.5,39.0,38.0,34.2,30.0,89,66,41,0.00,40.00,19,8,29,0.00
2014-12-23,47.0,39.3,32.0,38.0,36.4,32.0,100,90,68,0.00,40.00,5,2,8,0.00
2014-12-24,47.0,42.3,35.0,43.0,36.1,28.0,100,80,55,0.00,40.00,19,9,26,0.02
2014-12-25,51.0,40.2,33.0,32.0,28.7,27.0,80,65,41,0.00,40.00,13,7,18,0.01
2014-12-26,43.0,32.5,23.0,31.0,26.9,22.0,100,81,56,0.00,40.00,9,4,10,0.00
2014-12-27,44.0,33.1,23.0,37.0,30.9,23.0,100,92,65,0.00,40.00,9,4,15,0.00
2014-12-28,46.0,36.4,29.0,33.0,30.9,27.0,100,81,55,0.00,40.00,14,4,18,0.00
2014-12-29,35.0,30.6,22.0,32.0,16.6,6.0,100,58,36,0.00,40.00,21,12,33,0.00
2014-12-30,30.0,20.7,8.0,10.0,4.2,0.0,80,50,31,0.00,40.00,10,5,19,0.00
2014-12-31,27.0,15.4,6.0,13.0,7.8,2.0,88,73,45,0.00,40.00,4,3,7,0.00
2015-1-1,28.0,15.3,7.0,15.0,9.7,4.0,94,79,53,0.00,40.00,7,3,11,0.00
2015-1-2,27.0,20.4,14.0,23.0,16.6,11.0,98,86,69,0.00,40.00,7,3,10,0.00